[[{"header":{"parameterUnit":"m.s-1","parameterCategory":1,"la1":30.2991,"la2":30.254,"lo1":-89.0895,"lo2":-89.0444,"dy":0.0017,"dx":0.0017,"nx":28,"ny":28,"refTime":"2024-08-10T03:00:00:Z","depth":0,"parameterNumber":2,"parameterNumberName":"U-component_of_WINDS"},"data":[0,0,0,0,0,0,0,0,0,0,0,0,0,0,0,0,0,0,0,0,0,0,0,0,0,0,0,0,0,0,0,0,0,0,0,0,0,0,0,0,0,0,0,0,0,0,0,0,0,0,0,0,0,0,0,0,0,0,2.7792,2.7793,0,2.7884,2.7885,2.7886,2.7841,2.7838,2.7836,2.7834,2.793,2.7934,2.7939,0,0,0,0,0,0,0,0,0,0,0,0,0,2.7578,2.7582,2.7792,2.7793,2.7794,2.7883,2.7885,2.7886,2.7841,2.7838,2.7835,2.7833,2.7928,2.7934,2.7939,0,0,0,0,0,0,0,0,0,0,0,0,0,2.7671,2.7584,2.7792,2.7783,2.7783,2.7883,2.7885,2.7886,2.7842,2.7838,2.7835,2.7831,2.7926,2.7933,2.794,2.8055,0,0,2.7962,2.7965,0,0,0,0,0,0,0,0,2.7665,2.7679,2.7783,2.7783,2.7784,2.7847,2.7844,2.7943,2.7843,2.782,2.7834,2.783,2.7905,2.7914,2.7939,2.806,2.8064,2.7963,2.7967,2.797,2.7972,0,0,0,0,0,0,0,2.7659,2.7674,2.7828,2.7784,2.7785,2.7774,2.7783,2.7863,2.7881,2.7821,2.7818,2.783,2.7905,2.7932,2.7941,2.8065,2.7962,2.7969,2.7973,2.7976,2.8282,2.8286,0,0,0,0,0,0,2.7653,2.7669,2.7825,2.7831,2.7715,2.7781,2.7791,2.783,2.788,2.7884,2.7832,2.7827,2.7922,2.7932,2.7944,2.8079,2.797,2.7977,2.7981,2.8278,2.8283,2.8287,0,0,0,0,0,0,2.7649,2.7667,2.7822,2.7749,2.7768,2.7788,2.7833,2.7834,2.7861,2.7889,2.7892,2.7857,2.7919,2.7934,2.8027,2.8082,2.798,2.7986,2.8274,2.828,2.8285,2.8353,0,0,0,0,0,0,2.7643,2.7666,2.771,2.7751,2.7772,2.7904,2.7836,2.7838,2.7873,2.7867,2.7912,2.7917,2.7918,2.8017,2.8034,2.809,2.7992,2.8269,2.8276,2.8283,2.8346,2.8361,2.8373,0,0,0,0,0,2.7635,2.7727,2.7713,2.7732,2.7828,2.7907,2.7919,2.7918,2.7878,2.7922,2.7939,2.7915,2.8074,2.8027,2.8046,2.8105,2.8265,2.8274,2.8283,2.834,2.8358,2.8373,0,0,0,0,0,0,2.7694,2.7732,2.7717,2.7824,2.7862,2.7899,2.7955,2.7937,2.7988,2.798,2.7977,2.7987,2.8083,2.8104,2.8051,2.8217,2.8163,2.8176,2.82,2.8217,2.8231,2.8223,2.7998,0,0,0,0,0,2.7719,2.778,2.781,2.7902,2.7922,2.7935,2.797,2.7965,2.8005,2.8021,2.8045,2.8085,2.8143,2.8182,2.8237,2.8349,2.8357,2.8399,2.8413,2.8424,2.8434,2.8492,2.851,2.8315,2.8315,2.8315,0,0,2.7773,2.7801,2.784,2.7915,2.7944,2.8006,2.7949,2.8019,2.8064,2.8032,2.812,2.8139,2.8183,2.8285,2.8332,2.8305,2.849,2.8435,2.8443,2.8448,2.8503,2.8521,2.8538,2.8321,2.832,2.8319,0,0,2.7901,2.7929,2.8007,2.8037,2.8081,2.8089,2.8107,2.8146,2.8157,2.8246,2.8221,2.8276,2.8378,2.8409,2.8438,2.8576,2.8554,2.8594,2.8664,2.8721,2.8736,2.8749,2.8796,2.8813,2.8605,2.8605,2.8605,0,2.7961,2.8054,2.805,2.812,2.8153,2.8125,2.8203,2.8233,2.8293,2.8316,2.8285,2.841,2.8438,2.8545,2.8579,2.8604,2.8624,2.8589,2.8734,2.8747,2.876,2.8804,2.8822,2.861,2.8609,2.8609,2.8608,0,2.8125,2.819,2.8248,2.8305,2.8344,2.8419,2.8425,2.8466,2.8457,2.8468,2.8557,2.8589,2.8649,2.8675,2.8668,2.8781,2.8763,2.8734,2.8679,2.8783,2.8824,2.8842,2.8616,2.8614,2.8613,2.8612,0,0,2.8294,2.8346,2.8367,2.8391,2.8436,2.8486,2.8558,2.8616,2.8649,2.8692,2.8751,2.8836,2.8808,2.8841,2.8838,2.8888,2.8991,2.8852,2.8853,2.8874,2.9114,2.9135,2.9155,2.8978,2.8981,2.8984,2.911,0,2.8423,2.8548,2.8546,2.8662,2.872,2.8693,2.8756,2.879,2.8802,2.8853,2.8866,2.8925,2.8885,2.8904,2.8953,2.8968,2.9039,2.8959,2.9032,2.9034,2.9019,2.9177,2.9199,2.9317,2.9126,2.9129,2.9131,0,2.8591,2.8637,2.8758,2.8792,2.8817,2.8873,2.8924,2.8973,2.9011,2.9016,2.9051,2.9039,2.9112,2.9055,2.9154,2.91,2.9129,2.9141,2.9146,2.9151,2.9088,2.9185,2.9355,2.9372,2.9157,2.9155,2.9153,0,2.8699,2.8791,2.8874,2.8896,2.8939,2.8978,2.8998,2.9032,2.9066,2.9111,2.9132,2.9186,2.9215,2.9256,2.9258,2.9217,2.9357,2.9301,2.9361,2.9361,2.9391,2.9389,2.9567,2.9413,2.9413,2.9413,2.9412,0,2.8843,2.8918,2.8923,2.8974,2.9057,2.9053,2.9134,2.915,2.918,2.9234,2.9215,2.9265,2.9266,2.9317,2.932,2.9399,2.9413,2.9418,2.9418,2.9419,2.9418,2.9437,2.9428,2.9417,2.9416,2.9415,2.9415,0,2.8977,2.8983,2.9072,2.9104,2.9114,2.9173,2.92,2.9249,2.9258,2.9325,2.9341,2.9356,2.9415,2.9421,2.9491,2.9492,2.9588,2.958,2.9575,2.9573,2.9631,2.9625,2.9826,2.9851,2.9684,2.9685,2.9687,0,2.9067,2.9124,2.9161,2.9194,2.9216,2.9271,2.9305,2.9303,2.9338,2.9384,2.9426,2.9483,2.9529,2.9625,2.9641,2.9694,2.9685,2.9752,2.9693,2.9692,2.9684,2.9679,2.9684,2.9763,2.9765,2.9767,2.9768,0,2.9226,2.9226,2.9275,2.9325,2.9365,2.9404,2.9441,2.947,2.9472,2.9513,2.9573,2.9608,2.9677,2.9733,2.9784,2.9804,2.9786,2.9786,2.9802,2.9804,2.9797,2.9799,2.9604,2.9782,2.978,2.9779,2.9778,2.9778,2.934,2.9387,2.942,2.9475,2.9502,2.9536,2.9582,2.9596,2.9645,2.97,2.9696,2.9761,2.9795,2.9862,2.9885,2.9936,2.9914,2.9938,2.9944,2.9949,2.9954,2.9791,2.9946,2.9945,2.9945,2.9945,2.9944,0,2.9496,2.9515,2.9565,2.9616,2.9658,2.9636,2.9675,2.9712,2.9769,2.9802,2.9846,2.9913,2.9967,2.9987,3.004,3.0076,3.0069,3.009,3.0086,3.0091,2.9972,2.9952,3.0094,3.0094,3.0094,3.0094,3.0094,3.0094,2.9582,2.966,2.9664,2.9755,2.9774,2.9836,2.986,2.9891,2.9917,2.9992,3.0036,3.0048,3.0076,3.0129,3.0177,3.0182,3.0201,3.0225,3.0226,3.0115,3.0099,3.0085,3.0065,3.023,3.023,3.0339,3.034,3.0341]},{"header":{"parameterUnit":"m.s-1","parameterCategory":1,"la1":30.2991,"la2":30.254,"lo1":-89.0895,"lo2":-89.0444,"dy":0.0017,"dx":0.0017,"nx":28,"ny":28,"refTime":"2024-08-10T03:00:00:Z","depth":0,"parameterNumber":3,"parameterNumberName":"V-component_of_WINDS"},"data":[0,0,0,0,0,0,0,0,0,0,0,0,0,0,0,0,0,0,0,0,0,0,0,0,0,0,0,0,0,0,0,0,0,0,0,0,0,0,0,0,0,0,0,0,0,0,0,0,0,0,0,0,0,0,0,0,0,0,2.9424,2.9425,0,2.9432,2.9432,2.9432,2.9381,2.938,2.9379,2.9377,2.9383,2.9385,2.9386,0,0,0,0,0,0,0,0,0,0,0,0,0,2.9364,2.9365,2.9424,2.9425,2.9425,2.9432,2.9432,2.9432,2.9382,2.938,2.9378,2.9377,2.9383,2.9385,2.9386,0,0,0,0,0,0,0,0,0,0,0,0,0,2.9383,2.9366,2.9424,2.94,2.9398,2.9432,2.9432,2.9432,2.9382,2.938,2.9378,2.9376,2.9382,2.9384,2.9387,2.9443,0,0,2.9394,2.9394,0,0,0,0,0,0,0,0,2.9382,2.9385,2.9404,2.9402,2.94,2.9404,2.9413,2.9436,2.9383,2.9388,2.9377,2.9375,2.9392,2.9393,2.9399,2.9443,2.9444,2.9394,2.9395,2.9396,2.9397,0,0,0,0,0,0,0,2.9381,2.9384,2.9427,2.9404,2.9402,2.9388,2.9389,2.9417,2.9402,2.9388,2.9384,2.9386,2.939,2.9397,2.9399,2.9444,2.9394,2.9396,2.9397,2.9398,2.9533,2.9536,0,0,0,0,0,0,2.9383,2.9384,2.9427,2.9428,2.9385,2.9391,2.9392,2.9405,2.9401,2.9399,2.9387,2.9383,2.9394,2.9396,2.9399,2.9464,2.9396,2.9398,2.9399,2.9531,2.9534,2.9536,0,0,0,0,0,0,2.9382,2.9387,2.9427,2.9405,2.9409,2.9395,2.941,2.9406,2.9413,2.9401,2.9398,2.9397,2.9393,2.9396,2.9432,2.9463,2.9399,2.9401,2.9528,2.9532,2.9535,2.9595,0,0,0,0,0,0,2.938,2.9387,2.9409,2.9406,2.941,2.9461,2.9411,2.9408,2.9417,2.9411,2.941,2.9407,2.9391,2.9429,2.9435,2.9465,2.9403,2.9526,2.953,2.9534,2.959,2.96,2.9608,0,0,0,0,0,2.9378,2.9425,2.941,2.9416,2.9437,2.9463,2.9465,2.9446,2.942,2.9441,2.9433,2.9407,2.9459,2.9433,2.9439,2.9471,2.9524,2.9529,2.9534,2.9586,2.9598,2.9608,0,0,0,0,0,0,2.9433,2.9425,2.9408,2.9456,2.946,2.9454,2.9481,2.946,2.9472,2.9466,2.9442,2.9442,2.9482,2.948,2.9451,2.9525,2.9487,2.9493,2.9524,2.9536,2.9545,2.9544,2.9405,0,0,0,0,0,2.945,2.9472,2.9464,2.9507,2.951,2.9495,2.9506,2.9491,2.9494,2.9496,2.9491,2.9495,2.9512,2.9524,2.9539,2.959,2.9588,2.9614,2.9623,2.9631,2.9636,2.9662,2.9673,2.9553,2.9553,2.9553,0,0,2.9487,2.9485,2.9501,2.9518,2.952,2.9542,2.9497,2.9523,2.9539,2.95,2.9534,2.953,2.9533,2.9577,2.9596,2.9576,2.9669,2.9637,2.9643,2.9645,2.9668,2.968,2.969,2.9556,2.9556,2.9555,0,0,2.9564,2.9566,2.9601,2.9604,2.9608,2.9597,2.9606,2.9603,2.9599,2.9633,2.9604,2.9622,2.9652,2.9655,2.9661,2.9739,2.9715,2.9745,2.9792,2.9817,2.9826,2.9835,2.9862,2.9872,2.975,2.975,2.9751,0,2.9609,2.9643,2.9622,2.965,2.9658,2.9623,2.9658,2.9661,2.967,2.9675,2.9654,2.969,2.969,2.9733,2.9752,2.9758,2.9766,2.9744,2.9827,2.9835,2.9842,2.9868,2.9878,2.9754,2.9754,2.9753,2.9753,0,2.9697,2.972,2.9748,2.9757,2.9768,2.98,2.9783,2.9796,2.978,2.9772,2.9806,2.9805,2.9818,2.9827,2.9812,2.9868,2.9856,2.9831,2.9792,2.9858,2.9881,2.989,2.9759,2.9758,2.9757,2.9756,0,0,2.9809,2.9806,2.9816,2.9819,2.982,2.9838,2.9867,2.9881,2.9892,2.9899,2.9922,2.9948,2.9925,2.9931,2.9916,2.9938,2.9999,2.991,2.991,2.9926,3.0059,3.0078,3.0089,2.9983,2.9985,2.9986,3.0059,0,2.9884,2.9934,2.9916,2.9967,2.9988,2.9955,2.998,2.9983,2.9976,2.9992,2.9984,3.0002,2.9971,2.9974,2.9995,2.9987,3.0025,2.9982,3.0003,3.0004,3.0003,3.0102,3.0121,3.0189,3.0068,3.0069,3.0071,0,2.9978,2.9989,3.0042,3.0038,3.0046,3.007,3.008,3.0096,3.0098,3.0092,3.0099,3.0078,3.0105,3.0067,3.0104,3.0075,3.0083,3.0081,3.0083,3.0083,3.0041,3.0104,3.0211,3.0221,3.0085,3.0084,3.0083,0,3.0053,3.0081,3.0116,3.012,3.0117,3.0134,3.0133,3.0133,3.0142,3.0152,3.0157,3.0169,3.0176,3.0185,3.0168,3.0142,3.0207,3.0168,3.0202,3.0202,3.0216,3.0215,3.0325,3.0223,3.0223,3.0223,3.0223,0,3.0138,3.0172,3.0149,3.0171,3.0207,3.0186,3.0222,3.0217,3.0218,3.0237,3.021,3.0229,3.0205,3.0222,3.0208,3.024,3.0244,3.0239,3.0234,3.0241,3.0241,3.0245,3.0239,3.0225,3.0225,3.0224,3.0224,0,3.0228,3.0215,3.025,3.0245,3.0244,3.0271,3.0265,3.0285,3.0276,3.03,3.0305,3.0291,3.0308,3.0293,3.031,3.0301,3.0343,3.0333,3.0342,3.0339,3.0373,3.037,3.0489,3.0503,3.0392,3.0394,3.0394,0,3.0283,3.0308,3.0305,3.0316,3.0317,3.0336,3.0345,3.0324,3.0335,3.0339,3.0357,3.0373,3.0384,3.0414,3.0405,3.0417,3.0406,3.0447,3.0408,3.0413,3.0406,3.0404,3.0406,3.0455,3.0456,3.0457,3.0458,0,3.0381,3.0373,3.0387,3.0399,3.0411,3.0419,3.0425,3.0436,3.0415,3.0428,3.0446,3.0455,3.0472,3.0487,3.0497,3.0495,3.0473,3.047,3.0478,3.0485,3.0489,3.0486,3.0363,3.0467,3.0466,3.0466,3.0465,3.0465,3.0454,3.0474,3.0475,3.0492,3.0494,3.0501,3.0518,3.0511,3.0526,3.0538,3.0525,3.0547,3.0548,3.0558,3.056,3.0576,3.0559,3.0571,3.0574,3.0577,3.0582,3.0487,3.0578,3.0577,3.0577,3.0577,3.0577,0,3.055,3.0549,3.0564,3.0574,3.0587,3.0565,3.057,3.0582,3.0602,3.0605,3.0616,3.0636,3.0651,3.0643,3.0655,3.067,3.066,3.0674,3.0672,3.0672,3.0597,3.0588,3.0681,3.0681,3.0681,3.0681,3.0681,3.0681,3.0601,3.0634,3.0626,3.0659,3.0657,3.0678,3.0683,3.0689,3.0691,3.0715,3.0727,3.0721,3.072,3.0732,3.0744,3.0741,3.0747,3.0764,3.0758,3.0688,3.0677,3.0667,3.0659,3.0766,3.0766,3.0831,3.0832,3.0832]}]]